| time (UTC) | temp F | wind direction | speed knots | gust knots | rain 1hr in | rain 24hr in | rain mn in | humidity % | barometer mb |
| 20260507094510 | 72 | 79 | 0.9 | 5.2 | 0.00 | 0.00 | 0.00 | 26 | 952.6 |
| 20260507093018 | 73 | 93 | 0.9 | 3.5 | 0.00 | 0.00 | 0.00 | 26 | 952.5 |
| 20260507091506 | 73 | 90 | 0.0 | 0.0 | 0.00 | 0.00 | 0.00 | 25 | 952.5 |
| 20260507090006 | 74 | 83 | 0.0 | 0.9 | 0.00 | 0.00 | 0.00 | 25 | 952.5 |
| 20260507084504 | 74 | 81 | 0.0 | 0.0 | 0.00 | 0.00 | 0.00 | 25 | 952.5 |
| 20260507083004 | 74 | 109 | 0.0 | 0.9 | 0.00 | 0.00 | 0.00 | 25 | 952.5 |
| 20260507081502 | 74 | 199 | 0.0 | 6.1 | 0.00 | 0.00 | 0.00 | 25 | 952.6 |
| 20260507080135 | 74 | 88 | 4.3 | 7.0 | 0.00 | 0.00 | 0.00 | 25 | 952.4 |
| 20260507074657 | 75 | 79 | 3.5 | 6.1 | 0.00 | 0.00 | 0.00 | 25 | 952.4 |
| 20260507073101 | 76 | 88 | 1.7 | 4.3 | 0.00 | 0.00 | 0.00 | 26 | 952.3 |
| 20260507071601 | 76 | 92 | 1.7 | 6.1 | 0.00 | 0.00 | 0.00 | 25 | 952.3 |
| 20260507070050 | 76 | 101 | 1.7 | 7.0 | 0.00 | 0.00 | 0.00 | 25 | 952.2 |
| 20260507064553 | 77 | 104 | 3.5 | 7.0 | 0.00 | 0.00 | 0.00 | 24 | 952.1 |
| 20260507063051 | 76 | 98 | 3.5 | 6.1 | 0.00 | 0.00 | 0.00 | 24 | 951.9 |
| 20260507061547 | 77 | 162 | 0.0 | 4.3 | 0.00 | 0.00 | 0.00 | 23 | 951.8 |
| 20260507060047 | 77 | 112 | 0.0 | 0.0 | 0.00 | 0.00 | 0.00 | 22 | 951.6 |
| 20260507054552 | 78 | 91 | 1.7 | 5.2 | 0.00 | 0.00 | 0.00 | 22 | 951.5 |
| 20260507053048 | 78 | 102 | 3.5 | 5.2 | 0.00 | 0.00 | 0.00 | 22 | 951.3 |
| 20260507051544 | 79 | 80 | 3.5 | 6.1 | 0.00 | 0.00 | 0.00 | 22 | 951.3 |
| 20260507050043 | 78 | 85 | 1.7 | 6.1 | 0.00 | 0.00 | 0.00 | 22 | 951.2 |
| 20260507044543 | 79 | 88 | 1.7 | 6.1 | 0.00 | 0.00 | 0.00 | 21 | 951.1 |
| 20260507043043 | 80 | 2.6 | 4.3 | 0.00 | 0.00 | 0.00 | 21 | 951.1 | |
| 20260507041542 | 81 | 1.7 | 5.2 | 0.00 | 0.00 | 0.00 | 21 | 950.9 | |
| 20260507040053 | 81 | 2.6 | 7.0 | 0.00 | 0.00 | 0.00 | 20 | 950.7 | |
| 20260507034549 | 82 | 1.7 | 2.6 | 0.00 | 0.00 | 0.00 | 20 | 950.6 | |
| 20260507033043 | 83 | 294 | 0.0 | 0.0 | 0.00 | 0.00 | 0.00 | 19 | 950.4 |
| 20260507031539 | 85 | 314 | 0.0 | 0.0 | 0.00 | 0.00 | 0.00 | 19 | 950.2 |
| 20260507030039 | 85 | 314 | 0.0 | 0.0 | 0.00 | 0.00 | 0.00 | 18 | 950.0 |
| 20260507024538 | 86 | 314 | 0.0 | 1.7 | 0.00 | 0.00 | 0.00 | 18 | 949.8 |
| 20260507023038 | 86 | 313 | 3.5 | 6.1 | 0.00 | 0.00 | 0.00 | 18 | 949.7 |
| 20260507021536 | 87 | 312 | 1.7 | 4.3 | 0.00 | 0.00 | 0.00 | 18 | 949.7 |
| 20260507020036 | 88 | 326 | 1.7 | 6.1 | 0.00 | 0.00 | 0.00 | 17 | 949.7 |
| 20260507014536 | 88 | 346 | 3.5 | 7.0 | 0.00 | 0.00 | 0.00 | 17 | 949.7 |
| 20260507013038 | 88 | 350 | 2.6 | 11.3 | 0.00 | 0.00 | 0.00 | 17 | 949.7 |
| 20260507011539 | 88 | 4.3 | 7.0 | 0.00 | 0.00 | 0.00 | 17 | 949.8 | |
| 20260507010032 | 88 | 314 | 6.1 | 9.6 | 0.00 | 0.00 | 0.00 | 17 | 949.8 |
| 20260507004531 | 87 | 344 | 6.1 | 10.4 | 0.00 | 0.00 | 0.00 | 18 | 950.0 |
| 20260507003030 | 87 | 315 | 2.6 | 7.8 | 0.00 | 0.00 | 0.00 | 17 | 950.0 |
| 20260507001531 | 87 | 7.8 | 12.2 | 0.00 | 0.00 | 0.00 | 17 | 950.0 | |
| 20260507000029 | 87 | 344 | 7.8 | 14.8 | 0.00 | 0.00 | 0.00 | 17 | 950.0 |
| 20260506234533 | 87 | 319 | 11.3 | 15.6 | 0.00 | 0.00 | 0.00 | 17 | 949.9 |
| 20260506233026 | 87 | 10.4 | 14.8 | 0.00 | 0.00 | 0.00 | 17 | 950.2 | |
| 20260506231524 | 86 | 4.3 | 13.9 | 0.00 | 0.00 | 0.00 | 19 | 950.3 | |
| 20260506230021 | 86 | 291 | 6.1 | 12.2 | 0.00 | 0.00 | 0.00 | 20 | 950.4 |
| 20260506224525 | 86 | 316 | 7.0 | 11.3 | 0.00 | 0.00 | 0.00 | 20 | 950.7 |
| 20260506223017 | 85 | 306 | 9.6 | 14.8 | 0.00 | 0.00 | 0.00 | 20 | 951.0 |
| 20260506221516 | 84 | 274 | 7.0 | 12.2 | 0.00 | 0.00 | 0.00 | 22 | 951.2 |
| 20260506220015 | 85 | 331 | 7.0 | 11.3 | 0.00 | 0.00 | 0.00 | 22 | 951.5 |
| 20260506214513 | 84 | 287 | 2.6 | 8.7 | 0.00 | 0.00 | 0.00 | 21 | 951.7 |
| 20260506213019 | 83 | 149 | 3.5 | 11.3 | 0.00 | 0.00 | 0.00 | 22 | 952.0 |
| 20260506211513 | 83 | 13 | 1.7 | 8.7 | 0.00 | 0.00 | 0.00 | 22 | 952.2 |
| 20260506210010 | 83 | 145 | 0.0 | 7.8 | 0.00 | 0.00 | 0.00 | 22 | 952.4 |
| 20260506204506 | 81 | 295 | 0.0 | 5.2 | 0.00 | 0.00 | 0.00 | 23 | 952.6 |
| 20260506203004 | 81 | 139 | 3.5 | 8.7 | 0.00 | 0.00 | 0.00 | 24 | 952.7 |
| 20260506201503 | 80 | 238 | 1.7 | 11.3 | 0.00 | 0.00 | 0.00 | 24 | 952.8 |
| 20260506200003 | 80 | 245 | 5.2 | 9.6 | 0.00 | 0.00 | 0.00 | 25 | 953.0 |
| 20260506194600 | 79 | 205 | 3.5 | 8.7 | 0.00 | 0.00 | 0.00 | 25 | 953.3 |
| 20260506193058 | 79 | 219 | 7.0 | 13.0 | 0.00 | 0.00 | 0.00 | 26 | 953.3 |
| 20260506191604 | 79 | 245 | 7.8 | 12.2 | 0.00 | 0.00 | 0.00 | 27 | 953.5 |
| 20260506190058 | 78 | 239 | 1.7 | 10.4 | 0.00 | 0.00 | 0.00 | 28 | 953.7 |
| 20260506184600 | 77 | 231 | 2.6 | 10.4 | 0.00 | 0.00 | 0.00 | 28 | 953.8 |
| 20260506183058 | 76 | 200 | 5.2 | 12.2 | 0.00 | 0.00 | 0.00 | 29 | 954.1 |
| 20260506181556 | 76 | 231 | 3.5 | 14.8 | 0.00 | 0.00 | 0.00 | 29 | 954.2 |
| 20260506180051 | 74 | 175 | 1.7 | 10.4 | 0.00 | 0.00 | 0.00 | 31 | 954.3 |
| 20260506174604 | 74 | 255 | 2.6 | 8.7 | 0.00 | 0.00 | 0.00 | 31 | 954.4 |
| 20260506173053 | 72 | 276 | 0.9 | 8.7 | 0.00 | 0.00 | 0.00 | 33 | 954.4 |
| 20260506171543 | 72 | 4.3 | 8.7 | 0.00 | 0.00 | 0.00 | 33 | 954.4 | |
| 20260506170040 | 71 | 240 | 1.7 | 8.7 | 0.00 | 0.00 | 0.00 | 33 | 954.4 |
| 20260506164545 | 70 | 236 | 0.0 | 7.8 | 0.00 | 0.00 | 0.00 | 34 | 954.4 |
| 20260506163054 | 69 | 210 | 0.9 | 5.2 | 0.00 | 0.00 | 0.00 | 34 | 954.5 |
| 20260506161533 | 69 | 1.7 | 6.1 | 0.00 | 0.00 | 0.00 | 35 | 954.4 | |
| 20260506160030 | 67 | 158 | 1.7 | 6.1 | 0.00 | 0.00 | 0.00 | 36 | 954.4 |
| 20260506154535 | 67 | 195 | 0.0 | 3.5 | 0.00 | 0.00 | 0.00 | 36 | 954.3 |
| 20260506153031 | 66 | 273 | 0.0 | 2.6 | 0.00 | 0.00 | 0.00 | 37 | 954.3 |
| 20260506151533 | 65 | 217 | 0.0 | 0.0 | 0.00 | 0.00 | 0.00 | 39 | 954.2 |
| 20260506150024 | 64 | 285 | 0.0 | 0.0 | 0.00 | 0.00 | 0.00 | 39 | 954.0 |
| 20260506144522 | 64 | 243 | 0.0 | 0.9 | 0.00 | 0.00 | 0.00 | 39 | 954.0 |
| 20260506143019 | 64 | 221 | 0.0 | 0.9 | 0.00 | 0.00 | 0.00 | 40 | 953.8 |
| 20260506141517 | 63 | 210 | 0.0 | 0.9 | 0.00 | 0.00 | 0.00 | 40 | 953.7 |
| 20260506140022 | 64 | 155 | 0.0 | 0.0 | 0.00 | 0.00 | 0.00 | 39 | 953.6 |
| 20260506134514 | 63 | 143 | 0.0 | 0.0 | 0.00 | 0.00 | 0.00 | 40 | 953.4 |
| 20260506133013 | 62 | 122 | 0.0 | 0.9 | 0.00 | 0.00 | 0.00 | 41 | 953.3 |
| 20260506131517 | 61 | 101 | 0.0 | 0.9 | 0.00 | 0.00 | 0.00 | 42 | 953.2 |
| 20260506130010 | 61 | 116 | 0.0 | 0.0 | 0.00 | 0.00 | 0.00 | 42 | 952.9 |
| 20260506124507 | 61 | 101 | 0.0 | 0.0 | 0.00 | 0.00 | 0.00 | 42 | 952.8 |
| 20260506123008 | 61 | 101 | 0.0 | 0.0 | 0.00 | 0.00 | 0.00 | 42 | 952.6 |
| 20260506121505 | 61 | 112 | 0.0 | 0.9 | 0.00 | 0.00 | 0.00 | 42 | 952.5 |
| 20260506120002 | 61 | 116 | 0.0 | 0.9 | 0.00 | 0.00 | 0.00 | 42 | 952.4 |
| 20260506114501 | 61 | 145 | 0.0 | 0.9 | 0.00 | 0.00 | 0.00 | 42 | 952.4 |
| 20260506113100 | 61 | 112 | 0.0 | 0.0 | 0.00 | 0.00 | 0.00 | 42 | 952.3 |
| 20260506111600 | 61 | 243 | 0.0 | 0.0 | 0.00 | 0.00 | 0.00 | 42 | 952.2 |
| 20260506104551 | 62 | 116 | 0.0 | 0.0 | 0.00 | 0.00 | 0.00 | 41 | 951.8 |
| 20260506103048 | 62 | 134 | 0.0 | 0.0 | 0.00 | 0.00 | 0.00 | 41 | 951.7 |
| 20260506101554 | 63 | 159 | 0.0 | 0.0 | 0.00 | 0.00 | 0.00 | 40 | 951.6 |
| 20260506100044 | 63 | 243 | 0.0 | 0.0 | 0.00 | 0.00 | 0.00 | 40 | 951.6 |